Wind_Speed
25 26 25 25 26 27 29 29 29 29 29 30 30 30 30 30 31 32 32 31 31 31 31 32 32 32 33 33 31 31 31 29 27 29 30 32 32 30 28 25 20 17 16 16 15 16 15 13 12 12 12 11 11 12 13 14 14 14 15 16 17 18 19 19 21 20 17 18 22 24 24 24 26 27 27 28 29 30 31 32 31 30 30 30 29
25 25 25 25 26 27 28 28 29 29 30 30 31 31 31 32 32 33 34 33 32 33 34 35 35 35 36 35 33 33 33 31 30 31 31 30 30 30 28 26 22 18 16 15 15 15 16 14 13 13 12 12 13 13 14 14 14 14 15 17 18 20 21 22 23 23 21 19 21 23 24 25 26 27 27 28 29 31 33 34 33 32 32 31 30
24 24 24 24 25 25 27 28 29 29 30 30 30 31 32 33 33 34 35 35 34 35 36 37 38 38 38 38 37 36 36 35 33 33 32 30 29 29 28 25 22 19 16 15 14 14 15 14 14 14 13 13 14 14 14 14 14 15 16 19 20 21 23 24 24 25 24 22 21 21 23 25 26 28 28 28 29 30 32 33 33 33 33 33 32
24 24 24 23 24 25 26 28 28 29 29 29 29 30 31 33 33 34 35 36 36 37 38 39 40 40 40 40 40 39 38 37 36 34 35 35 30 27 27 24 21 19 17 15 15 14 14 14 14 15 16 16 15 15 15 15 15 16 18 19 21 22 23 25 26 26 26 25 23 23 24 25 26 28 29 29 29 29 31 32 32 33 33 34 34
26 25 24 23 24 25 26 27 27 27 27 27 27 27 30 32 31 32 34 36 37 37 38 40 40 41 42 42 41 41 41 41 40 37 37 38 32 28 27 25 21 19 18 17 15 14 13 13 15 17 17 16 15 15 15 14 15 17 18 19 21 22 23 24 26 27 27 26 26 25 26 26 26 27 28 30 31 30 30 31 32 33 33 33 33
27 26 25 25 25 25 26 26 26 25 25 25 25 26 29 30 31 31 33 35 37 37 38 39 39 41 43 43 42 42 43 43 43 41 38 35 32 31 28 24 22 20 19 18 16 14 13 13 15 16 15 14 14 14 14 15 16 17 18 19 21 23 24 25 26 27 28 28 27 26 26 27 28 27 27 29 32 32 30 30 30 32 33 34 33
28 27 26 27 27 27 27 27 26 26 25 25 26 27 28 29 31 33 34 36 37 38 38 38 39 41 44 44 43 43 44 44 45 45 41 35 31 32 30 25 25 22 19 18 17 14 12 13 14 14 14 14 14 15 16 17 18 18 19 20 22 23 25 25 26 28 29 29 28 28 28 28 28 28 26 27 32 33 31 31 32 32 34 34 33
29 27 26 27 28 28 28 27 27 27 26 26 27 28 28 29 31 34 36 37 37 38 39 39 39 41 44 45 44 43 44 45 46 47 43 37 32 31 31 28 26 22 18 18 17 14 13 14 15 15 15 15 16 17 19 20 20 20 20 22 24 25 25 26 27 28 30 29 28 29 30 28 27 27 27 28 30 31 31 33 33 32 32 32 32
29 27 26 27 28 27 27 27 26 27 27 27 28 29 29 30 32 34 37 37 36 37 39 41 40 41 44 45 42 42 44 47 47 46 43 38 33 30 31 29 25 21 17 18 17 14 13 15 15 16 17 18 19 20 20 21 22 22 22 23 26 26 26 26 27 29 30 30 29 28 29 29 27 27 28 29 31 31 31 32 31 30 30 29 29
27 26 25 25 26 26 26 26 26 27 29 29 30 31 31 31 33 35 37 38 38 37 39 41 41 40 43 46 42 40 42 43 44 44 42 38 33 30 30 28 24 20 18 19 17 14 14 15 16 17 19 21 22 22 20 22 23 23 24 25 27 29 28 28 28 28 29 30 29 28 28 28 27 28 28 29 31 30 30 31 30 29 29 29 29
25 24 24 25 26 26 26 27 28 30 31 31 31 32 32 32 33 36 38 38 39 39 40 42 42 39 43 47 44 41 40 38 39 41 41 38 33 30 28 24 24 23 21 20 17 15 16 17 17 19 21 23 25 23 21 22 24 24 26 27 29 30 30 29 28 27 27 28 29 28 27 27 26 27 28 28 29 30 29 30 30 30 30 31 32
24 25 26 27 28 28 28 29 30 30 30 31 31 32 32 32 34 36 37 37 39 40 40 43 42 39 42 45 43 40 37 35 36 39 39 36 33 30 25 23 25 25 22 20 18 16 17 18 20 22 23 26 28 27 24 23 24 25 27 28 29 30 30 30 29 28 27 29 29 28 27 27 26 27 27 27 28 30 30 30 30 33 34 34 34
27 28 28 29 30 30 30 29 29 28 29 29 30 30 31 32 33 34 35 36 39 40 40 42 42 41 40 39 37 37 36 35 37 39 37 34 33 30 24 22 24 24 21 20 19 18 19 20 22 25 26 27 28 28 27 25 24 26 28 29 29 29 29 30 30 29 29 30 30 29 27 27 28 28 28 28 28 30 31 32 33 35 35 34 34
30 30 30 30 30 30 29 27 27 27 27 28 29 29 31 32 33 34 35 37 39 39 39 41 41 40 38 35 32 33 35 36 38 39 36 34 33 27 21 21 24 23 21 20 19 20 21 22 23 26 28 29 26 26 27 26 26 28 29 28 29 28 28 29 30 29 30 30 30 30 28 27 29 29 28 29 30 31 34 36 36 35 35 35 34
33 31 31 30 29 28 27 26 27 27 28 28 28 29 30 31 31 32 34 35 37 37 38 39 39 39 38 34 31 33 36 37 38 37 34 32 29 23 19 21 24 24 21 20 21 22 24 24 25 27 29 29 27 26 27 27 28 30 30 28 28 28 28 29 29 28 28 30 31 31 29 28 30 31 31 31 32 33 35 36 36 36 36 35 35
33 31 30 29 28 27 27 26 27 28 27 27 26 26 26 27 27 28 30 33 35 37 37 38 38 38 36 33 31 33 36 37 36 34 30 26 25 23 21 22 24 24 22 21 23 25 25 25 27 29 29 29 28 27 28 29 30 31 30 30 30 29 29 29 29 28 28 29 30 31 30 31 33 34 33 33 33 34 36 36 36 36 37 37 36
34 32 30 29 28 27 27 26 26 26 25 23 22 21 22 24 24 27 30 33 36 37 38 37 37 36 35 31 29 31 33 33 32 28 24 23 24 24 24 24 25 25 23 23 24 26 26 26 28 29 30 30 29 28 28 29 30 31 31 31 31 30 29 29 29 30 30 30 30 30 31 33 34 34 33 34 34 35 37 37 36 36 37 38 37
34 32 31 29 28 27 26 25 24 23 22 20 19 19 20 22 24 27 31 34 36 37 37 36 35 34 32 29 28 30 32 31 28 25 23 23 25 26 25 26 27 25 23 24 26 27 27 28 28 29 30 31 30 29 29 29 30 31 32 32 32 30 30 30 30 29 30 32 32 32 32 33 33 34 33 33 34 34 36 37 36 35 35 36 36
34 32 31 29 28 27 25 24 23 22 20 18 18 18 20 23 25 27 31 34 36 36 35 34 33 31 30 28 29 31 32 30 27 25 24 25 26 26 26 27 27 25 24 26 27 28 28 29 29 28 29 30 29 28 29 30 31 32 33 33 32 31 31 31 31 30 31 33 34 34 34 34 34 33 32 33 34 34 35 36 34 33 34 35 36
34 32 31 29 28 27 25 24 22 21 20 19 19 20 22 24 27 28 30 33 35 34 34 33 30 29 29 29 30 31 31 30 27 25 26 27 26 26 27 27 26 25 26 27 29 29 29 30 29 26 27 28 27 27 29 31 32 33 33 33 33 32 31 32 32 32 32 33 33 34 33 33 33 33 32 33 32 29 30 33 34 33 35 37 37
33 32 30 29 28 27 26 25 23 22 21 20 21 22 24 27 29 30 30 32 33 33 33 32 30 30 31 31 32 32 31 30 28 25 26 27 26 27 28 27 25 26 28 28 28 29 30 31 29 26 25 26 26 28 30 32 32 33 33 33 33 32 32 32 32 32 33 33 32 32 31 32 32 31 32 31 28 25 28 33 35 35 36 37 38
31 29 28 27 27 27 26 24 23 22 21 21 23 25 28 30 31 31 31 32 33 33 32 32 31 32 33 32 31 29 29 30 28 25 25 27 28 28 28 26 25 27 27 26 27 28 30 31 29 27 26 27 28 30 31 31 32 33 33 33 33 32 32 32 32 32 32 31 30 30 29 30 30 30 30 30 29 30 32 34 34 34 35 36 37
27 26 26 27 28 27 25 23 22 22 23 24 26 28 29 30 31 31 31 31 32 32 31 30 30 30 31 31 29 27 27 27 26 24 26 27 28 27 27 26 26 25 25 24 25 28 29 29 28 28 29 30 31 31 31 31 32 32 33 33 32 32 31 31 31 31 30 29 28 28 28 28 28 29 29 29 30 31 32 31 32 33 34 34 35
24 25 27 27 26 24 23 22 22 23 25 26 27 27 28 29 31 32 31 31 32 31 29 28 27 28 30 30 28 25 25 25 26 26 27 27 27 27 27 26 25 24 22 21 23 27 29 29 29 30 32 32 32 31 31 31 32 33 33 32 32 31 31 31 31 30 28 26 26 27 27 27 28 28 29 29 29 30 31 32 32 32 33 33 32
27 28 28 25 23 23 23 24 24 24 25 26 27 27 28 30 32 32 32 31 31 30 28 27 26 26 26 26 25 24 25 26 27 27 27 27 27 27 26 25 24 23 23 22 23 26 28 29 30 32 32 31 31 31 32 32 32 33 32 31 31 30 30 31 30 28 25 25 25 26 27 27 28 29 29 29 30 31 32 32 31 31 30 30 28
30 30 27 23 23 24 24 25 25 25 26 26 27 28 29 32 33 32 31 31 30 28 27 25 24 23 23 23 24 26 28 28 27 27 28 28 28 27 26 24 23 23 23 22 23 25 27 28 30 31 31 30 30 32 33 33 32 32 31 30 30 29 30 30 28 25 24 24 25 26 27 28 28 29 30 31 31 31 32 31 30 28 27 27 26
29 27 25 23 24 24 25 25 25 26 27 27 28 29 31 32 32 31 31 30 28 27 26 24 23 24 25 25 26 27 28 27 27 29 29 28 27 26 25 25 24 23 22 22 24 25 26 26 27 29 29 30 32 33 34 33 32 30 29 29 29 28 29 28 26 24 23 24 25 26 27 28 28 29 30 31 30 30 30 30 28 25 25 25 25
27 27 25 24 24 24 25 26 26 28 30 29 29 30 32 31 31 30 29 27 25 25 24 22 23 25 25 26 27 28 28 27 27 29 28 27 27 27 26 26 24 22 21 22 24 24 23 24 26 28 30 32 32 32 33 32 30 28 26 26 26 26 25 24 23 23 24 25 25 26 27 27 28 29 29 30 29 28 28 27 25 24 23 24 26
31 30 27 26 25 25 26 27 29 30 31 30 29 31 32 30 29 28 26 25 24 24 23 22 23 23 24 26 27 28 29 28 26 26 25 25 27 28 26 24 22 20 20 21 22 23 25 28 29 30 31 32 32 32 31 30 29 26 25 25 24 22 21 22 22 24 26 26 26 27 27 28 28 29 29 28 27 26 26 25 24 23 23 24 26
31 30 28 27 27 27 27 28 29 30 31 30 30 30 31 29 27 26 25 24 24 24 24 24 24 24 24 25 27 29 28 26 25 25 24 24 25 26 25 22 21 21 20 20 21 24 29 31 31 30 32 33 30 27 26 24 22 22 23 24 24 23 22 22 21 23 26 27 27 27 28 28 28 28 28 27 25 24 24 24 23 23 24 25 27
24 26 27 27 27 28 28 28 28 28 29 29 30 30 29 27 26 24 23 24 25 25 25 27 28 27 25 25 28 29 27 27 28 26 22 20 22 23 21 20 21 21 20 20 24 27 29 29 27 27 30 29 24 22 22 20 17 17 19 21 22 21 22 23 22 23 26 28 28 28 28 28 28 28 26 25 23 22 22 23 23 23 24 26 27
22 25 27 26 25 25 26 27 27 27 28 29 29 28 27 26 24 23 23 24 25 26 27 29 30 30 29 29 30 29 27 28 29 25 20 18 18 18 19 21 22 22 22 24 28 29 28 27 26 27 29 26 21 22 25 22 19 18 18 19 19 19 21 23 24 25 27 29 28 28 28 28 28 27 25 24 22 21 21 22 22 24 25 26 26
21 23 24 24 23 23 25 25 26 27 28 27 26 25 25 24 22 22 24 26 27 28 29 31 32 33 32 31 31 30 29 27 25 21 18 16 17 18 20 22 23 23 24 27 28 27 26 26 26 27 29 27 24 24 25 23 21 22 22 22 22 21 23 25 25 26 28 30 28 28 27 27 26 25 24 22 21 21 21 22 23 24 25 26 26
20 22 23 23 23 23 23 23 24 26 26 25 24 23 23 22 21 22 25 28 28 29 30 32 35 36 34 32 32 32 30 27 24 21 18 17 18 20 21 22 22 24 25 26 26 25 25 25 24 23 26 28 26 24 23 22 23 24 23 23 24 24 24 25 26 27 29 29 28 27 26 25 24 24 22 21 20 20 21 22 23 24 25 25 25
21 22 22 22 22 21 22 23 24 24 24 23 22 21 21 22 22 22 24 25 26 27 30 34 36 34 32 31 31 30 27 25 25 23 20 19 19 20 19 20 22 25 25 25 25 24 25 25 23 24 27 28 25 23 23 22 23 24 24 23 23 24 24 25 27 28 28 27 27 26 25 23 23 22 21 20 19 20 21 22 23 24 24 24 25
20 20 19 19 19 19 19 20 20 21 20 20 20 20 20 20 20 21 22 22 22 25 28 31 32 32 31 29 27 24 22 22 22 20 19 18 18 18 18 20 23 25 26 25 25 25 25 24 23 24 26 26 24 22 23 23 23 24 24 23 22 23 24 26 27 27 27 26 26 24 22 21 21 20 19 19 19 20 22 23 23 23 23 23 23
17 17 16 15 14 15 15 16 17 18 18 19 19 19 19 19 19 19 20 19 18 20 21 21 22 25 26 23 20 19 19 20 20 18 17 16 16 17 18 20 23 25 27 27 27 27 26 24 22 21 22 23 23 23 22 23 23 23 23 22 21 21 23 25 26 26 25 25 23 21 20 19 19 18 18 18 19 21 22 23 22 22 21 21 22
14 16 15 14 14 15 16 16 17 18 19 19 19 18 17 17 17 17 17 17 17 18 18 18 20 22 24 22 20 18 17 18 19 17 15 14 15 17 20 22 23 23 25 28 30 29 25 22 21 21 21 21 21 21 22 23 23 22 22 22 21 21 22 23 23 23 23 22 21 19 18 17 17 17 17 18 20 21 22 22 21 21 20 20 20
14 15 15 16 17 18 19 19 19 19 19 19 19 18 16 16 17 18 19 19 19 20 22 24 26 26 25 23 19 16 16 17 17 14 13 15 18 20 21 23 23 23 23 27 29 27 23 21 21 21 21 20 19 20 21 21 21 22 22 22 21 21 21 21 21 20 20 19 18 17 16 16 15 16 17 18 20 21 21 20 20 20 20 19 19
15 16 17 18 19 20 20 20 20 19 19 19 19 19 18 18 19 20 21 22 24 25 25 26 26 24 21 19 17 17 18 17 15 15 17 19 20 21 21 22 25 25 25 25 24 23 21 21 21 21 21 20 19 19 19 19 20 21 21 21 21 21 21 20 19 19 18 17 17 16 15 14 14 15 16 18 19 19 19 19 19 19 19 19 18
16 17 18 18 18 19 21 21 21 20 20 19 19 20 20 20 21 21 22 24 25 25 25 24 23 21 20 20 20 20 19 17 17 20 22 21 20 20 21 23 25 26 25 23 21 20 20 19 19 20 20 19 19 20 19 19 19 20 20 21 21 20 20 19 18 17 16 16 15 14 13 13 13 14 15 16 17 17 18 18 18 18 18 18 18
17 18 19 19 19 19 20 21 21 21 21 20 20 20 20 21 22 23 23 24 26 26 26 25 23 21 22 22 21 20 19 20 22 24 24 22 20 21 23 24 24 23 22 21 21 21 20 18 18 19 20 20 20 20 19 19 19 19 20 20 20 19 19 18 17 16 15 14 13 12 12 12 12 13 14 14 15 16 16 16 17 18 18 18 17
19 18 18 18 19 19 20 20 19 19 20 20 20 20 20 20 20 21 22 24 25 25 24 21 19 20 21 21 20 19 20 21 22 23 23 23 23 24 24 24 23 21 20 19 19 19 19 19 18 19 19 19 19 19 19 19 19 19 19 19 19 18 17 16 15 14 13 12 11 11 10 11 11 12 13 13 14 15 15 16 16 17 17 17 17
21 19 17 17 18 18 19 19 18 18 19 19 19 19 19 19 19 20 20 21 21 19 17 17 18 20 21 21 21 21 20 19 20 21 23 24 25 25 25 24 23 20 19 18 18 18 19 19 19 18 18 19 18 18 19 19 19 19 19 18 18 17 16 15 14 12 11 11 10 10 10 10 11 11 12 13 14 14 14 15 15 16 16 16 16
19 18 18 17 18 18 18 18 18 19 20 20 21 21 21 20 19 19 17 16 16 17 18 19 20 21 22 22 21 20 18 18 20 21 22 23 24 24 24 23 21 19 18 18 17 18 18 19 19 17 17 18 18 17 17 18 18 18 18 17 17 16 15 13 12 11 11 10 9 9 9 10 10 11 12 12 13 13 13 14 14 15 15 15 15
15 14 15 16 18 19 19 18 18 19 20 21 21 20 19 19 18 17 17 16 16 18 20 21 21 19 18 18 17 17 18 19 19 19 19 21 21 22 22 21 20 19 18 18 18 17 17 18 18 17 16 17 17 17 17 17 17 17 17 17 16 14 13 12 12 11 10 9 9 9 9 10 10 11 11 12 12 12 12 12 13 13 14 15 15
12 13 14 16 17 18 18 18 19 19 20 20 20 19 18 18 17 17 17 17 17 19 20 20 18 15 13 14 15 16 17 17 17 17 18 19 20 21 22 22 22 21 20 20 18 16 16 16 17 17 17 16 16 16 16 16 16 17 16 16 14 13 12 12 12 11 10 9 9 9 9 9 10 11 11 11 12 11 11 11 12 12 13 14 14
12 14 15 17 17 17 17 17 18 19 19 19 18 17 17 17 16 15 15 15 16 17 17 16 16 15 14 14 14 15 15 16 16 16 17 18 20 23 24 24 23 23 22 20 18 16 15 16 17 17 17 15 15 16 16 15 16 16 16 14 13 13 12 13 12 11 10 10 9 9 9 10 10 11 11 11 11 11 10 10 11 12 13 13 14
13 14 15 15 15 15 14 15 16 17 17 17 15 14 14 13 11 11 12 12 12 12 12 13 15 15 14 13 14 14 14 14 15 15 16 18 20 23 24 24 24 23 23 22 20 17 16 17 19 19 17 15 14 15 15 15 16 16 15 13 13 13 13 13 12 12 11 11 10 9 10 10 10 11 11 11 10 10 10 10 10 11 12 13 13
12 13 13 14 14 13 11 12 13 13 13 12 11 11 12 10 9 10 12 12 12 12 12 13 14 14 14 13 13 13 12 13 14 15 16 18 22 24 25 26 26 24 22 22 22 19 17 18 20 20 18 16 15 15 15 15 16 15 14 14 14 14 13 13 13 12 12 12 10 10 10 10 10 11 11 11 10 10 10 10 10 11 11 12 13
11 11 12 12 12 10 9 9 11 11 10 9 10 10 10 10 10 11 12 13 13 14 14 13 13 13 13 12 12 12 12 14 16 17 18 20 23 25 25 26 27 25 23 22 23 21 19 19 19 19 18 16 16 16 15 15 15 15 14 15 15 14 14 14 14 13 13 13 12 11 10 10 10 12 12 11 11 11 10 10 11 11 11 12 12
Wind_Direction
223 225 226 227 228 229 230 232 233 234 234 236 238 239 241 243 245 248 253 257 261 263 264 265 267 269 271 274 276 278 282 289 297 302 299 297 300 296 286 286 291 290 289 291 293 297 296 291 287 293 301 304 307 307 304 301 298 297 299 302 303 302 300 298 296 296 295 293 294 297 298 297 297 299 300 299 299 297 296 297 297 295 295 294 293
225 225 227 229 230 231 233 235 237 238 240 241 243 244 247 249 250 252 258 263 265 266 267 268 269 269 271 274 274 274 278 282 291 304 303 294 298 300 288 280 282 285 286 289 295 300 299 291 286 290 296 300 302 301 299 298 297 300 302 303 303 302 301 298 297 298 299 297 295 296 297 297 298 299 298 297 296 295 295 297 298 297 296 295 294
227 226 228 230 232 232 234 236 238 240 242 245 247 249 251 254 255 256 261 266 267 268 269 269 270 271 273 275 274 274 277 277 283 296 303 298 296 299 290 276 274 280 283 286 289 292 292 286 284 288 292 297 299 298 298 297 298 304 307 307 305 303 302 300 299 299 300 300 299 298 298 297 297 298 298 296 295 295 295 296 296 296 296 296 295
227 228 229 230 232 233 235 237 239 241 244 247 250 252 254 257 259 260 263 266 268 269 271 271 272 273 275 276 275 275 275 274 278 287 296 299 301 302 291 273 270 279 280 279 280 281 282 280 283 289 293 296 296 295 297 299 304 310 311 310 307 304 302 301 301 301 302 302 303 303 301 297 297 299 296 293 292 292 292 292 293 293 294 294 294
230 231 230 230 232 233 235 238 241 243 245 248 251 253 257 261 264 263 264 267 269 271 272 273 273 274 276 276 274 274 275 275 278 282 291 298 302 307 297 277 271 279 277 275 276 274 276 279 285 292 294 294 295 295 298 302 308 313 313 312 310 306 303 302 301 301 302 303 305 306 304 299 298 299 297 294 293 291 290 290 291 292 292 292 292
231 232 230 231 234 236 237 240 244 246 247 248 250 253 259 265 267 265 264 266 271 273 273 274 274 273 273 273 273 275 276 277 278 280 289 298 299 305 304 283 272 277 274 273 274 270 273 281 286 291 293 292 294 295 297 302 309 313 315 315 313 310 307 304 302 302 303 305 305 304 303 300 298 297 297 296 295 292 291 290 291 293 293 291 290
232 234 231 232 236 238 240 242 245 248 249 250 251 255 260 264 267 268 267 268 272 274 274 274 275 274 272 273 275 276 276 278 279 280 289 299 297 300 304 289 275 276 273 269 270 268 273 283 285 289 290 290 293 297 300 303 306 310 313 316 315 313 309 306 304 303 304 305 304 302 302 300 297 295 297 298 295 293 291 291 292 292 291 290 288
232 235 233 232 235 238 240 242 245 247 249 251 252 256 260 263 267 269 272 274 275 276 276 274 274 273 271 271 275 277 278 279 279 280 288 299 297 296 301 293 278 274 267 259 262 266 274 283 287 289 290 291 295 303 306 305 305 307 311 315 316 315 311 306 303 303 303 302 302 302 301 299 297 297 299 298 295 294 294 293 292 292 292 290 287
232 234 232 231 233 237 240 242 244 246 249 252 254 258 262 264 266 268 272 275 277 277 277 275 273 273 271 271 274 279 278 277 279 281 286 294 294 292 298 294 278 268 260 253 257 265 274 283 289 291 293 296 299 305 308 306 305 307 310 314 317 315 310 305 302 302 301 300 301 301 301 301 301 299 297 295 294 295 295 295 295 296 295 292 290
230 232 232 232 234 238 239 242 245 247 251 255 258 261 263 265 266 267 270 273 276 276 277 276 276 275 273 272 275 281 280 277 278 280 284 291 291 289 294 291 274 264 255 249 257 267 274 284 290 291 295 298 299 301 304 306 306 307 308 313 317 315 310 305 303 302 301 300 301 302 301 301 300 297 295 294 295 296 296 298 299 298 296 293 292
231 233 234 235 238 240 240 242 246 249 252 257 261 263 265 265 266 267 270 272 275 276 277 279 279 277 274 273 276 282 284 282 280 279 282 287 287 287 289 282 271 267 257 251 259 269 277 286 291 293 296 297 297 298 302 306 310 312 311 313 316 315 311 306 304 303 302 300 300 302 302 300 300 298 297 297 298 299 299 299 298 297 297 295 294
231 233 234 236 239 240 242 244 248 253 256 259 262 265 266 266 266 269 272 273 275 276 279 282 282 276 272 274 278 281 281 282 280 278 279 281 283 285 283 271 267 269 260 255 262 270 279 288 293 295 296 298 302 306 306 305 308 311 313 314 315 312 307 304 304 304 303 301 301 304 304 303 301 300 298 298 298 298 297 295 294 296 297 296 295
229 231 233 235 238 240 243 247 252 257 259 261 264 265 266 268 268 270 271 272 274 277 279 282 282 277 273 275 278 279 277 275 274 274 275 277 278 280 274 262 264 265 258 257 265 273 281 287 292 296 299 302 306 308 308 306 307 311 314 312 309 305 301 302 304 304 303 303 304 306 307 305 304 302 300 299 298 296 295 295 296 298 298 298 298
229 230 232 235 238 240 244 249 253 257 258 260 263 264 266 269 269 270 271 272 274 277 279 280 279 277 275 276 277 277 275 273 271 272 273 273 274 273 263 257 260 258 254 259 268 275 281 287 293 299 302 304 302 301 304 307 308 309 310 307 303 301 301 302 303 302 302 304 304 306 307 305 301 300 299 298 298 297 296 296 298 300 300 299 299
229 230 232 235 238 242 246 249 251 253 255 257 259 261 264 266 267 270 272 273 275 277 278 278 277 276 278 279 276 274 274 273 272 273 272 270 269 266 255 252 255 253 253 260 268 275 281 289 296 300 301 302 300 299 304 307 306 305 305 304 303 303 303 303 302 301 302 304 304 306 306 303 300 299 298 298 298 297 297 298 300 301 300 299 300
228 229 232 235 238 242 245 246 247 249 251 253 256 259 262 265 267 270 272 274 276 277 278 278 277 277 280 279 274 270 270 270 272 273 271 263 258 253 249 249 250 250 254 261 268 275 282 290 296 299 299 299 300 302 306 306 304 303 304 305 305 305 305 304 301 299 300 301 302 304 304 303 301 299 299 299 298 297 297 298 301 302 302 302 302
227 228 231 234 236 239 241 243 245 247 249 252 255 259 263 268 271 274 275 275 276 278 279 279 278 279 280 277 270 267 268 269 268 263 256 247 242 241 242 244 246 248 255 263 269 277 285 292 296 297 297 299 302 306 307 304 303 304 306 307 306 307 307 305 303 302 301 300 301 302 302 301 299 298 298 298 298 298 299 300 302 303 302 302 304
226 227 228 231 234 238 241 243 244 246 249 253 257 262 269 275 280 282 280 277 277 279 281 281 280 281 278 271 265 265 267 267 259 243 231 229 232 234 237 239 242 247 255 264 271 279 286 292 293 294 297 300 304 306 305 302 303 305 307 307 308 309 309 307 303 302 301 302 302 302 300 298 296 296 296 295 295 296 297 298 300 301 299 300 304
224 224 226 231 238 242 244 245 246 248 252 258 265 275 282 287 291 290 283 279 280 282 284 285 283 280 273 265 261 262 262 258 247 229 219 222 228 233 236 236 240 247 256 265 273 280 285 290 292 294 297 300 302 302 301 302 305 307 308 309 310 311 309 306 304 302 302 303 304 303 302 299 297 296 296 295 296 296 295 296 300 301 300 302 306
222 225 229 236 243 246 246 246 247 251 257 267 279 288 292 296 298 294 285 282 284 286 287 287 282 273 267 262 260 260 256 249 240 226 219 222 227 232 234 234 239 249 257 266 274 280 286 291 292 292 294 298 299 299 300 304 307 308 309 309 309 309 307 305 304 303 303 303 303 302 301 300 299 300 300 301 302 300 299 300 303 304 303 304 305
224 229 234 240 245 247 247 248 251 257 266 277 287 294 298 300 300 295 287 284 287 288 289 287 278 267 261 258 258 258 252 242 234 226 222 225 228 230 231 234 240 250 258 267 276 284 289 292 293 294 296 298 298 298 302 306 307 307 307 307 307 306 305 304 303 303 303 303 302 300 300 300 301 302 302 303 302 301 302 305 306 304 303 303 303
225 229 236 243 247 247 247 251 256 265 275 285 292 297 300 300 299 295 290 286 288 290 290 286 278 268 262 259 257 252 244 237 233 229 226 226 226 227 231 236 242 251 261 271 280 286 288 291 295 298 299 298 298 301 304 306 306 306 305 305 304 303 302 302 302 302 302 302 301 300 300 301 302 303 304 305 305 304 304 305 304 302 301 301 301
223 232 242 246 247 247 250 255 263 273 284 291 295 298 299 298 297 295 290 286 288 290 289 285 278 269 263 259 253 245 240 238 236 233 228 225 224 227 232 239 246 254 264 274 282 285 286 290 296 299 298 299 301 303 304 305 305 304 303 303 302 301 301 301 301 301 301 301 300 300 301 302 304 305 306 307 308 308 307 306 304 302 300 300 299
229 242 247 246 245 249 255 263 274 283 290 294 296 297 297 297 297 295 290 286 288 290 288 283 276 267 260 255 250 243 238 235 233 232 229 225 224 228 235 243 252 257 262 270 278 283 287 292 296 296 296 299 301 302 303 304 303 302 301 300 300 300 300 300 300 300 300 299 298 300 302 304 306 307 307 308 309 310 309 307 305 303 301 300 301
242 250 247 245 251 260 267 276 285 291 294 296 296 296 297 298 297 294 288 286 288 290 286 280 273 264 254 248 241 234 233 232 230 230 229 225 226 233 240 248 254 259 264 269 274 281 287 291 293 293 294 297 299 301 303 302 300 299 299 299 299 299 299 299 299 300 300 299 301 304 306 307 308 307 308 309 310 309 309 307 305 303 302 302 305
248 248 245 250 264 273 280 287 292 295 295 295 295 296 297 298 296 292 288 288 289 288 282 274 265 255 244 236 231 230 232 233 230 228 227 226 230 238 244 248 254 262 268 270 274 279 284 286 289 292 294 297 300 302 301 299 297 297 297 297 297 298 297 298 299 299 299 301 304 306 306 307 308 308 307 308 308 308 307 306 305 305 305 307 311
246 246 251 264 276 282 288 292 294 294 294 294 295 296 296 295 292 289 287 288 289 285 277 267 257 248 240 234 231 230 232 233 229 225 227 231 238 244 246 250 258 264 266 268 274 278 282 288 294 297 299 301 302 301 299 297 296 295 295 295 295 295 295 296 299 301 302 304 306 306 306 307 306 306 305 305 307 308 307 307 307 308 310 312 316
248 253 264 276 282 285 289 291 293 293 294 294 295 294 293 291 288 286 285 287 287 283 274 264 257 251 243 237 233 231 232 232 229 226 230 238 246 249 251 258 264 263 263 268 274 279 287 297 301 300 300 301 300 297 294 294 294 295 295 294 292 291 291 294 298 301 303 305 306 306 306 306 305 305 304 305 307 308 307 306 308 310 312 314 317
259 261 270 279 282 284 289 291 291 292 294 294 293 291 289 286 284 283 286 289 287 278 265 257 253 248 242 237 235 232 231 231 231 233 239 245 249 254 259 262 261 257 259 267 276 287 298 304 304 301 300 301 301 298 297 298 300 301 300 298 295 292 289 291 296 301 304 306 307 307 306 305 305 305 305 306 308 308 307 307 308 311 313 315 319
261 265 273 279 282 286 288 289 289 291 293 293 289 286 283 281 280 282 286 288 283 272 261 254 247 241 238 236 232 229 229 231 236 240 242 245 253 262 265 259 251 252 259 270 286 298 302 303 304 304 304 303 302 300 298 299 300 299 297 296 297 296 292 291 295 303 307 308 308 307 305 305 305 305 306 308 309 309 307 307 309 311 314 317 321
269 274 278 281 285 288 288 287 288 290 290 287 283 280 278 277 279 282 283 281 276 270 264 256 247 238 231 228 227 227 229 234 238 241 243 250 260 265 261 251 249 256 265 279 293 299 299 299 301 300 299 297 294 289 289 290 288 284 284 285 288 291 291 293 299 306 308 307 306 306 305 305 305 306 307 309 310 309 307 307 309 312 316 320 322
277 279 280 281 283 284 284 285 286 285 283 280 278 277 278 280 283 283 278 275 274 270 264 257 248 237 225 219 221 226 230 235 242 250 259 264 260 253 248 248 254 263 274 286 293 296 298 298 297 295 294 290 284 284 288 288 283 279 279 278 278 278 282 291 303 308 306 305 305 304 304 305 305 306 308 310 310 309 307 308 311 314 318 321 322
274 274 277 280 280 279 280 280 279 278 277 275 274 276 279 284 286 283 277 275 273 269 263 255 244 233 223 218 220 227 232 238 245 254 260 258 251 248 250 255 263 273 283 290 293 295 299 298 294 292 293 293 290 290 292 290 286 286 284 280 279 279 283 292 301 303 302 303 303 302 303 304 304 305 309 310 310 309 309 311 314 317 319 321 322
271 272 275 277 276 275 275 274 272 273 274 274 275 278 281 283 283 279 276 274 271 265 259 250 238 227 220 219 223 228 232 238 245 251 251 250 249 252 257 265 274 284 290 292 294 296 299 297 290 285 289 294 294 293 292 292 292 293 291 286 283 285 288 293 296 298 299 300 301 301 303 304 303 305 308 309 310 310 311 313 316 319 320 321 322
273 274 273 273 273 272 271 270 270 271 272 274 277 280 283 284 283 278 275 273 269 261 252 242 233 227 224 226 230 233 235 241 250 255 254 250 250 257 267 278 287 291 293 294 295 297 298 294 287 281 285 290 291 290 291 293 293 293 292 290 287 288 291 293 294 296 297 298 299 301 302 302 303 305 307 309 311 312 313 315 318 321 321 321 322
274 272 270 270 271 271 270 270 271 273 274 276 278 280 281 283 283 278 274 271 267 259 249 239 233 234 235 235 238 243 247 253 256 254 249 248 255 268 282 290 293 294 294 293 294 298 298 293 285 281 282 286 288 290 293 295 293 292 291 290 289 290 291 292 293 295 296 296 298 300 301 301 302 304 306 310 313 313 315 318 320 322 322 321 322
267 265 265 266 266 267 269 272 274 276 278 280 281 283 285 286 285 280 275 271 264 258 254 246 242 245 248 250 252 256 259 260 256 249 248 256 269 284 293 295 294 295 297 298 300 302 299 293 286 282 282 285 291 295 295 294 295 295 293 292 291 290 289 291 292 293 294 295 298 300 300 300 302 303 306 311 313 314 317 319 320 322 324 323 322
260 261 261 260 258 259 263 266 268 273 278 283 286 289 290 289 284 275 268 264 260 258 259 260 262 265 268 270 269 264 256 250 247 247 254 268 285 296 297 294 293 294 294 296 299 301 298 293 290 288 288 291 296 298 297 297 297 296 294 294 293 290 288 290 291 291 293 295 297 299 300 299 300 303 307 311 314 317 319 321 321 324 325 324 324
258 259 258 256 256 257 259 261 267 273 279 283 285 286 284 279 274 269 264 261 263 266 268 269 271 271 270 267 263 254 243 239 243 251 264 278 292 298 296 293 294 294 290 289 293 297 296 294 293 295 297 299 300 298 297 297 297 295 295 295 295 293 293 293 292 293 294 296 297 298 298 297 299 304 309 312 316 318 320 322 323 325 326 326 327
255 254 254 254 257 260 262 265 267 271 274 276 276 276 274 271 269 269 270 271 273 274 273 271 272 271 267 260 252 242 238 240 248 259 269 278 289 294 293 292 294 294 291 290 291 292 293 296 298 300 302 304 303 299 298 298 296 295 296 295 293 292 293 294 295 296 295 295 295 295 294 295 298 305 310 314 317 319 321 322 324 326 329 330 330
252 253 254 256 259 263 267 268 267 267 268 269 268 267 267 267 268 271 274 277 279 278 275 274 277 275 266 256 247 243 244 251 260 268 273 279 287 291 293 292 292 293 295 294 291 290 293 297 300 301 304 306 304 300 299 299 297 296 296 294 292 291 291 293 295 294 292 292 292 290 290 294 300 307 312 315 317 320 321 323 326 329 331 332 332
249 252 255 258 260 262 264 266 267 266 265 265 264 263 262 264 268 272 274 276 278 277 274 276 277 271 259 252 249 250 256 265 273 277 282 287 291 291 291 293 293 294 294 293 292 293 295 297 299 302 303 303 302 300 299 298 297 297 296 294 292 292 291 292 292 290 287 287 286 284 289 297 303 310 315 318 320 322 324 325 327 330 332 333 333
251 252 254 257 258 258 260 263 264 264 263 262 262 262 263 264 268 271 272 273 275 276 274 271 265 255 248 250 256 264 270 275 279 283 286 289 290 290 291 293 294 292 289 288 290 294 297 299 301 302 301 300 300 299 298 298 298 299 298 295 293 291 291 289 287 285 282 280 280 282 291 300 307 313 318 320 323 325 326 326 329 332 334 334 335
252 249 250 254 257 258 259 261 261 259 259 259 261 263 266 268 269 270 269 267 267 268 265 259 252 249 251 259 269 276 279 281 282 284 285 285 286 288 291 293 292 291 291 292 294 296 298 301 301 300 300 300 300 299 298 298 299 299 298 296 293 291 289 286 283 279 276 275 278 285 295 303 309 314 318 321 324 325 326 327 329 332 335 336 335
254 253 252 253 255 257 258 259 258 256 256 259 263 265 267 267 268 267 263 259 259 262 263 261 260 260 262 267 271 274 278 282 282 282 282 283 285 288 290 289 288 290 294 296 297 298 300 300 300 301 301 301 300 299 298 298 299 299 298 295 292 290 287 283 278 273 272 272 278 288 297 304 309 314 318 321 323 323 324 327 330 333 337 338 336
253 254 251 249 250 253 255 258 259 259 259 262 266 268 270 268 265 261 257 254 257 262 266 268 268 267 265 268 272 275 279 281 280 277 280 284 286 286 286 285 287 293 297 298 297 298 299 299 301 304 304 302 301 301 299 297 297 297 295 293 292 289 285 280 273 269 269 272 279 289 297 302 308 314 317 319 318 319 323 327 331 335 340 341 338
242 243 244 246 248 252 254 258 261 262 263 265 267 268 265 261 258 257 258 259 261 264 267 269 270 268 267 273 277 277 277 277 274 272 276 279 280 282 285 289 293 298 300 299 299 299 300 302 306 309 308 305 302 299 297 296 295 293 292 292 291 286 280 276 271 267 267 270 277 287 296 301 307 312 315 315 315 317 322 328 333 338 342 343 342
231 236 241 245 249 253 254 256 260 262 262 263 264 262 258 255 255 258 261 260 258 260 264 268 271 273 275 275 273 271 273 275 271 268 270 274 278 283 287 290 294 299 301 302 304 307 307 308 310 310 307 304 300 296 296 295 291 289 289 290 286 280 276 273 269 264 265 268 274 284 293 299 305 310 312 311 311 314 321 328 334 340 343 345 345
228 234 241 247 252 254 253 253 256 259 259 260 260 258 256 254 254 258 262 262 260 260 264 270 275 279 279 277 273 271 271 271 267 266 269 274 278 282 285 287 293 299 303 305 309 311 309 309 312 311 306 300 296 295 295 293 289 287 286 284 279 275 272 269 265 262 262 266 272 280 289 297 303 308 308 307 306 309 317 326 333 338 342 346 346
232 238 242 246 249 250 246 246 250 253 254 254 253 250 251 253 254 258 265 268 269 269 268 268 271 273 275 275 273 269 265 263 264 266 268 270 274 279 283 287 293 299 303 307 310 308 304 305 310 310 305 298 294 294 294 292 289 286 281 276 273 271 268 265 263 260 261 265 270 276 285 294 302 305 304 302 302 304 311 320 328 334 339 344 345
234 240 244 246 248 248 247 248 251 252 252 253 253 254 258 261 260 259 259 259 261 264 264 262 261 263 266 268 268 266 263 265 268 268 268 272 277 282 284 287 292 299 303 306 307 305 302 303 307 309 306 299 293 291 292 293 290 283 275 270 269 268 265 262 260 258 259 263 268 272 280 291 298 300 299 298 297 300 305 314 321 327 334 339 342
Height
3165 3167 3169 3170 3171 3172 3173 3174 3176 3177 3178 3178 3178 3179 3180 3180 3181 3181 3181 3181 3182 3183 3183 3182 3182 3182 3182 3181 3182 3182 3182 3183 3183 3182 3183 3182 3182 3182 3182 3182 3181 3179 3178 3178 3178 3177 3177 3176 3175 3175 3174 3174 3173 3173 3172 3172 3172 3172 3171 3170 3169 3169 3168 3167 3166 3166 3167 3165 3163 3161 3160 3159 3157 3156 3154 3153 3152 3150 3148 3147 3147 3146 3145 3145 3144
3163 3165 3166 3168 3169 3170 3171 3172 3173 3174 3175 3176 3176 3177 3177 3178 3179 3179 3178 3179 3180 3180 3180 3180 3180 3179 3179 3179 3180 3180 3180 3180 3180 3179 3180 3180 3179 3179 3179 3179 3178 3177 3176 3176 3175 3175 3175 3175 3174 3173 3173 3172 3172 3171 3171 3171 3170 3170 3169 3168 3167 3166 3165 3165 3164 3162 3163 3163 3162 3160 3158 3156 3155 3153 3152 3150 3149 3147 3145 3144 3143 3142 3141 3141 3140
3160 3162 3164 3165 3167 3168 3169 3170 3171 3172 3172 3173 3174 3175 3175 3176 3176 3176 3176 3176 3177 3177 3177 3177 3177 3176 3177 3177 3177 3177 3177 3177 3177 3177 3177 3177 3177 3177 3176 3176 3175 3174 3174 3174 3173 3173 3173 3173 3172 3172 3171 3171 3170 3170 3169 3169 3168 3168 3167 3166 3165 3164 3163 3161 3160 3159 3159 3159 3159 3157 3156 3154 3152 3150 3149 3147 3145 3144 3142 3141 3139 3138 3137 3136 3136
3158 3160 3161 3163 3164 3165 3166 3167 3168 3169 3170 3170 3172 3173 3173 3173 3174 3174 3174 3174 3174 3174 3174 3174 3174 3173 3174 3174 3174 3174 3174 3173 3173 3174 3175 3174 3174 3174 3173 3173 3172 3171 3171 3171 3171 3171 3171 3171 3170 3170 3170 3169 3168 3168 3168 3167 3167 3166 3165 3164 3162 3161 3160 3158 3157 3156 3155 3155 3154 3154 3153 3151 3149 3147 3146 3144 3142 3141 3139 3138 3136 3135 3134 3132 3131
3155 3157 3159 3160 3161 3162 3163 3164 3165 3166 3167 3168 3170 3171 3170 3170 3171 3171 3172 3171 3171 3171 3171 3171 3171 3171 3171 3170 3170 3171 3171 3170 3170 3171 3172 3172 3172 3171 3170 3170 3170 3169 3169 3169 3169 3169 3169 3169 3169 3168 3168 3167 3167 3166 3166 3165 3165 3164 3162 3161 3160 3159 3158 3156 3154 3153 3151 3151 3150 3149 3148 3146 3145 3144 3142 3140 3138 3137 3136 3134 3132 3131 3130 3129 3127
3152 3154 3156 3157 3158 3159 3160 3161 3162 3163 3165 3166 3167 3168 3168 3167 3167 3168 3169 3168 3167 3167 3168 3167 3168 3168 3167 3167 3168 3168 3168 3167 3166 3166 3168 3169 3169 3168 3168 3167 3167 3166 3166 3167 3167 3167 3167 3167 3167 3166 3166 3165 3165 3164 3164 3163 3162 3161 3160 3159 3158 3156 3155 3153 3152 3150 3148 3147 3146 3145 3144 3142 3141 3140 3139 3136 3134 3133 3132 3131 3129 3128 3126 3124 3123
3149 3151 3153 3155 3155 3156 3157 3158 3160 3161 3162 3164 3165 3165 3165 3165 3164 3164 3165 3165 3164 3163 3164 3164 3164 3165 3164 3164 3165 3165 3165 3165 3164 3163 3164 3166 3166 3166 3165 3165 3164 3164 3164 3164 3165 3165 3165 3165 3165 3164 3164 3163 3163 3162 3162 3161 3160 3159 3158 3156 3155 3154 3152 3150 3149 3147 3145 3143 3142 3140 3139 3139 3137 3136 3135 3133 3130 3129 3128 3126 3125 3124 3122 3120 3119
3146 3147 3150 3151 3152 3153 3154 3156 3157 3158 3160 3161 3162 3162 3162 3162 3162 3161 3161 3161 3160 3160 3160 3160 3161 3161 3160 3160 3162 3162 3162 3161 3160 3160 3161 3163 3163 3163 3162 3162 3161 3161 3161 3162 3162 3162 3162 3162 3162 3162 3162 3161 3161 3160 3159 3158 3157 3157 3156 3154 3152 3151 3149 3148 3146 3144 3142 3140 3139 3137 3135 3134 3133 3132 3130 3129 3127 3125 3124 3122 3121 3120 3118 3116 3115
3143 3144 3147 3148 3149 3151 3152 3153 3155 3156 3157 3158 3158 3159 3159 3159 3159 3158 3157 3157 3157 3156 3156 3156 3156 3156 3156 3155 3157 3158 3157 3157 3157 3157 3158 3159 3159 3159 3159 3159 3159 3159 3159 3160 3160 3160 3160 3160 3160 3159 3159 3158 3158 3158 3157 3155 3154 3153 3152 3151 3149 3148 3146 3145 3143 3141 3139 3136 3135 3134 3132 3130 3129 3128 3126 3125 3123 3122 3120 3118 3116 3115 3114 3112 3111
3140 3142 3144 3145 3147 3148 3149 3151 3152 3153 3154 3154 3155 3156 3156 3156 3155 3154 3154 3154 3153 3152 3151 3150 3151 3152 3151 3150 3151 3152 3152 3152 3153 3155 3155 3155 3155 3155 3155 3155 3156 3156 3157 3157 3157 3157 3157 3157 3157 3157 3156 3155 3154 3154 3154 3152 3151 3150 3148 3147 3146 3144 3143 3141 3140 3138 3136 3133 3131 3130 3129 3127 3125 3124 3122 3121 3119 3118 3116 3114 3112 3111 3109 3108 3107
3137 3139 3141 3142 3143 3145 3146 3148 3149 3150 3151 3151 3152 3153 3153 3153 3152 3151 3151 3150 3150 3148 3147 3145 3146 3148 3147 3145 3146 3148 3147 3148 3150 3151 3151 3151 3151 3151 3152 3152 3152 3153 3154 3154 3154 3154 3154 3154 3154 3154 3153 3151 3150 3150 3151 3149 3147 3146 3145 3143 3142 3140 3139 3137 3136 3135 3133 3130 3128 3127 3125 3123 3122 3120 3119 3117 3115 3113 3112 3110 3108 3107 3106 3104 3102
3135 3136 3138 3139 3140 3142 3144 3145 3146 3147 3148 3149 3149 3149 3149 3150 3149 3148 3147 3147 3146 3145 3143 3142 3142 3143 3143 3141 3142 3142 3142 3144 3146 3147 3146 3146 3147 3147 3148 3148 3149 3150 3151 3151 3151 3151 3152 3152 3151 3150 3149 3148 3145 3145 3146 3146 3145 3143 3141 3140 3139 3137 3135 3134 3132 3131 3129 3127 3125 3123 3122 3120 3118 3117 3116 3114 3112 3110 3108 3107 3105 3103 3102 3100 3098
3131 3133 3134 3136 3137 3139 3141 3142 3143 3144 3145 3146 3146 3146 3146 3146 3145 3145 3145 3144 3142 3141 3140 3139 3138 3138 3138 3138 3138 3138 3138 3140 3142 3142 3142 3143 3143 3143 3144 3145 3146 3147 3148 3148 3148 3148 3148 3148 3148 3147 3146 3145 3144 3142 3141 3141 3141 3139 3138 3137 3136 3134 3133 3130 3128 3126 3124 3122 3120 3119 3117 3116 3114 3113 3112 3110 3109 3107 3105 3103 3102 3100 3098 3096 3094
3128 3129 3131 3133 3134 3136 3138 3139 3140 3141 3141 3142 3142 3143 3142 3142 3142 3141 3141 3140 3138 3137 3137 3136 3135 3134 3134 3135 3135 3134 3134 3136 3137 3138 3139 3139 3139 3140 3140 3141 3143 3144 3145 3145 3145 3145 3145 3145 3145 3144 3142 3141 3141 3140 3139 3138 3137 3136 3135 3134 3133 3131 3129 3127 3124 3122 3120 3118 3116 3115 3113 3112 3111 3110 3108 3107 3105 3103 3100 3099 3098 3096 3094 3092 3090
3124 3126 3128 3130 3131 3133 3135 3136 3137 3137 3138 3138 3138 3139 3139 3138 3138 3138 3137 3136 3134 3133 3133 3132 3131 3131 3130 3131 3131 3130 3130 3132 3133 3133 3134 3135 3136 3136 3137 3138 3140 3141 3142 3142 3142 3142 3142 3141 3141 3141 3139 3137 3137 3136 3135 3134 3133 3133 3132 3130 3129 3127 3125 3123 3121 3119 3117 3114 3112 3111 3109 3108 3107 3105 3104 3102 3101 3099 3096 3094 3093 3092 3089 3087 3085
3121 3124 3125 3127 3129 3130 3132 3133 3133 3134 3134 3134 3135 3135 3135 3134 3134 3134 3133 3132 3130 3129 3128 3128 3127 3127 3127 3127 3127 3126 3126 3128 3128 3129 3129 3131 3132 3132 3133 3135 3137 3138 3139 3139 3139 3139 3139 3139 3138 3137 3136 3134 3133 3133 3132 3130 3129 3128 3127 3126 3124 3123 3122 3120 3117 3115 3113 3111 3109 3107 3106 3104 3102 3100 3099 3098 3096 3094 3092 3090 3089 3087 3084 3081 3080
3118 3120 3122 3124 3125 3127 3128 3129 3129 3130 3130 3131 3131 3131 3131 3131 3131 3131 3130 3128 3126 3125 3124 3124 3123 3123 3123 3123 3123 3123 3123 3123 3124 3125 3126 3127 3127 3128 3130 3132 3134 3135 3136 3136 3137 3136 3136 3136 3135 3134 3132 3130 3129 3130 3129 3127 3125 3124 3122 3121 3120 3118 3117 3115 3113 3111 3109 3108 3106 3104 3102 3101 3099 3097 3096 3094 3092 3090 3087 3085 3085 3083 3079 3076 3074
3115 3117 3119 3120 3122 3123 3124 3125 3126 3126 3127 3127 3128 3128 3128 3128 3128 3128 3126 3125 3123 3122 3121 3120 3119 3119 3120 3119 3119 3120 3119 3119 3120 3121 3122 3123 3123 3124 3127 3129 3130 3132 3133 3133 3133 3133 3132 3132 3132 3131 3129 3127 3127 3126 3125 3123 3122 3120 3118 3117 3115 3114 3113 3111 3109 3107 3105 3103 3102 3101 3099 3097 3096 3094 3093 3091 3089 3086 3083 3081 3080 3079 3075 3073 3070
3112 3114 3115 3117 3118 3119 3120 3121 3122 3122 3123 3123 3124 3124 3124 3124 3123 3123 3122 3120 3119 3118 3117 3116 3115 3115 3116 3116 3116 3117 3115 3114 3116 3117 3118 3119 3120 3121 3123 3125 3127 3128 3129 3130 3129 3129 3129 3129 3129 3128 3126 3125 3124 3123 3121 3120 3118 3116 3114 3112 3111 3110 3108 3107 3105 3103 3101 3099 3097 3096 3094 3093 3091 3090 3089 3087 3085 3083 3079 3078 3077 3074 3071 3069 3066
3109 3110 3112 3113 3114 3115 3116 3117 3118 3118 3119 3119 3119 3119 3119 3119 3118 3118 3117 3116 3115 3114 3113 3112 3111 3111 3111 3111 3112 3112 3111 3111 3112 3113 3114 3115 3116 3119 3120 3122 3124 3125 3126 3126 3125 3124 3124 3124 3125 3126 3124 3123 3121 3120 3118 3116 3114 3112 3110 3108 3106 3106 3105 3103 3101 3099 3098 3096 3094 3092 3090 3088 3087 3085 3084 3082 3080 3078 3075 3073 3073 3070 3067 3064 3062
3105 3107 3109 3110 3111 3112 3113 3113 3114 3114 3115 3115 3115 3114 3114 3114 3113 3114 3113 3111 3110 3109 3108 3107 3107 3107 3106 3106 3107 3108 3108 3107 3108 3109 3111 3112 3113 3115 3117 3119 3121 3122 3122 3122 3122 3121 3120 3120 3121 3122 3121 3119 3118 3116 3114 3112 3110 3109 3106 3104 3103 3102 3101 3099 3097 3096 3094 3092 3090 3088 3087 3085 3083 3081 3080 3078 3077 3075 3073 3070 3069 3067 3064 3061 3058
3103 3104 3106 3108 3109 3110 3110 3110 3110 3110 3110 3111 3110 3110 3110 3109 3108 3109 3108 3106 3105 3104 3103 3102 3102 3102 3101 3101 3103 3103 3103 3103 3103 3105 3108 3109 3110 3112 3114 3116 3118 3119 3119 3119 3118 3117 3116 3116 3116 3117 3116 3115 3113 3112 3110 3108 3107 3105 3103 3101 3099 3098 3097 3095 3094 3092 3090 3088 3086 3085 3083 3081 3080 3078 3076 3075 3073 3072 3070 3068 3066 3063 3061 3058 3055
3100 3102 3104 3105 3106 3107 3107 3106 3107 3107 3106 3106 3106 3105 3105 3104 3103 3103 3103 3101 3100 3099 3098 3098 3098 3098 3098 3098 3099 3099 3099 3100 3101 3103 3105 3107 3108 3110 3112 3113 3115 3116 3116 3115 3114 3114 3113 3113 3113 3112 3111 3110 3109 3107 3106 3105 3103 3101 3099 3097 3095 3094 3093 3091 3089 3088 3086 3085 3083 3081 3080 3078 3076 3075 3073 3071 3070 3068 3066 3064 3062 3060 3057 3055 3053
3097 3100 3102 3103 3103 3103 3103 3103 3103 3103 3102 3102 3101 3101 3100 3099 3099 3098 3097 3096 3095 3094 3094 3094 3094 3094 3094 3095 3096 3097 3097 3098 3099 3101 3103 3105 3106 3108 3109 3111 3112 3113 3112 3112 3111 3111 3110 3109 3109 3108 3107 3106 3105 3103 3102 3101 3099 3097 3095 3093 3092 3090 3089 3087 3086 3084 3083 3081 3080 3078 3077 3075 3073 3071 3070 3068 3066 3064 3062 3061 3059 3056 3054 3051 3049
3093 3096 3098 3100 3100 3100 3099 3099 3099 3099 3098 3098 3097 3096 3095 3095 3094 3094 3092 3091 3091 3090 3090 3090 3090 3090 3091 3092 3093 3094 3095 3096 3098 3099 3101 3102 3104 3105 3106 3108 3109 3109 3109 3108 3108 3108 3107 3106 3106 3105 3104 3103 3101 3099 3098 3097 3095 3093 3091 3089 3088 3086 3085 3083 3082 3081 3079 3078 3076 3074 3073 3071 3070 3068 3066 3064 3063 3061 3059 3057 3055 3053 3050 3047 3045
3090 3092 3094 3096 3096 3096 3096 3095 3095 3094 3094 3093 3093 3092 3091 3090 3090 3089 3088 3087 3087 3086 3085 3086 3086 3087 3088 3089 3090 3091 3092 3093 3095 3097 3098 3099 3101 3102 3103 3104 3105 3106 3106 3105 3106 3105 3105 3104 3103 3102 3100 3099 3097 3095 3094 3093 3091 3089 3087 3085 3084 3083 3081 3079 3079 3078 3076 3074 3073 3071 3070 3068 3066 3064 3062 3061 3059 3057 3055 3053 3051 3049 3046 3043 3041
3087 3089 3091 3092 3092 3092 3092 3091 3091 3090 3090 3089 3088 3088 3087 3086 3085 3085 3084 3083 3083 3082 3082 3082 3083 3083 3084 3086 3087 3088 3088 3090 3092 3094 3095 3096 3098 3099 3100 3101 3102 3103 3103 3102 3102 3102 3102 3102 3100 3098 3096 3095 3093 3091 3089 3087 3086 3085 3083 3082 3080 3079 3077 3076 3075 3074 3072 3071 3070 3068 3067 3065 3063 3062 3060 3058 3056 3054 3051 3049 3047 3045 3043 3040 3038
3084 3086 3088 3088 3089 3088 3087 3087 3086 3085 3085 3085 3084 3083 3082 3082 3081 3080 3079 3080 3080 3079 3079 3079 3080 3080 3081 3083 3084 3084 3085 3087 3089 3091 3092 3094 3095 3095 3097 3098 3099 3100 3100 3100 3099 3098 3098 3098 3096 3094 3092 3091 3089 3088 3085 3083 3082 3081 3079 3077 3076 3075 3074 3073 3071 3070 3069 3068 3067 3065 3064 3062 3060 3059 3057 3055 3053 3051 3048 3046 3044 3042 3040 3038 3035
3081 3083 3084 3085 3085 3084 3084 3083 3082 3081 3080 3080 3080 3079 3078 3078 3078 3076 3076 3077 3078 3077 3077 3077 3078 3079 3080 3081 3081 3082 3084 3085 3087 3089 3090 3092 3092 3092 3094 3095 3096 3097 3097 3096 3095 3093 3093 3092 3091 3090 3088 3086 3085 3083 3081 3079 3077 3075 3074 3073 3072 3072 3071 3070 3068 3067 3065 3064 3063 3062 3060 3059 3057 3056 3054 3052 3050 3048 3045 3043 3041 3039 3037 3035 3032
3077 3079 3080 3080 3080 3080 3079 3078 3077 3077 3076 3076 3076 3075 3075 3074 3073 3073 3074 3074 3074 3074 3075 3076 3076 3077 3078 3079 3080 3081 3082 3084 3085 3085 3086 3088 3089 3090 3091 3092 3093 3093 3094 3093 3091 3090 3088 3087 3086 3084 3082 3081 3079 3078 3076 3074 3073 3071 3070 3069 3068 3068 3067 3066 3065 3064 3062 3061 3060 3058 3057 3056 3054 3053 3051 3048 3047 3045 3043 3041 3038 3036 3034 3032 3030
3074 3074 3074 3075 3075 3074 3074 3073 3072 3072 3072 3071 3071 3071 3070 3070 3069 3070 3070 3070 3070 3071 3071 3072 3073 3074 3075 3076 3078 3079 3080 3080 3081 3082 3082 3083 3086 3087 3088 3089 3090 3090 3090 3089 3088 3088 3086 3084 3082 3081 3079 3077 3076 3074 3073 3072 3071 3069 3068 3067 3065 3065 3064 3062 3062 3061 3060 3058 3057 3055 3054 3053 3051 3049 3047 3045 3044 3042 3040 3038 3036 3034 3032 3029 3027
3070 3069 3069 3070 3070 3070 3069 3068 3068 3068 3068 3068 3067 3066 3066 3065 3065 3066 3066 3067 3067 3067 3068 3068 3069 3070 3072 3073 3074 3076 3077 3077 3078 3079 3080 3081 3083 3084 3085 3086 3086 3087 3086 3086 3085 3084 3082 3080 3078 3077 3076 3075 3073 3071 3070 3069 3068 3066 3066 3065 3063 3063 3061 3059 3058 3058 3057 3055 3054 3053 3051 3050 3048 3046 3044 3042 3041 3039 3038 3036 3034 3031 3029 3027 3024
3066 3065 3064 3065 3066 3066 3065 3065 3064 3064 3064 3064 3063 3063 3062 3062 3061 3062 3062 3063 3063 3064 3064 3065 3066 3067 3068 3070 3071 3072 3074 3075 3076 3076 3077 3079 3080 3082 3082 3083 3083 3083 3082 3082 3080 3079 3078 3076 3074 3072 3071 3071 3070 3068 3066 3065 3064 3063 3062 3061 3060 3060 3058 3055 3055 3055 3054 3052 3051 3050 3048 3047 3045 3043 3042 3040 3038 3037 3035 3033 3031 3029 3026 3024 3022
3061 3061 3061 3061 3061 3061 3062 3061 3061 3060 3060 3060 3060 3060 3059 3059 3059 3060 3060 3060 3060 3060 3060 3061 3062 3063 3065 3067 3068 3069 3070 3071 3073 3073 3074 3076 3078 3079 3079 3079 3079 3079 3078 3077 3076 3075 3073 3072 3070 3068 3067 3067 3066 3065 3063 3062 3061 3060 3059 3058 3057 3056 3054 3052 3052 3052 3051 3049 3048 3047 3045 3044 3042 3040 3039 3037 3036 3034 3033 3031 3029 3026 3024 3022 3020
3058 3058 3058 3058 3058 3058 3058 3058 3057 3057 3057 3058 3057 3057 3057 3057 3057 3057 3057 3057 3057 3057 3057 3058 3059 3061 3063 3064 3065 3066 3067 3069 3070 3070 3071 3074 3075 3076 3076 3075 3075 3074 3073 3073 3072 3070 3069 3068 3067 3065 3063 3063 3063 3061 3060 3059 3058 3057 3055 3054 3053 3052 3050 3049 3049 3048 3048 3046 3045 3044 3042 3041 3039 3038 3036 3035 3033 3032 3030 3028 3026 3024 3022 3019 3017
3054 3054 3054 3055 3055 3055 3054 3054 3054 3054 3054 3055 3055 3055 3054 3054 3054 3054 3054 3054 3054 3054 3055 3056 3058 3060 3061 3062 3063 3064 3065 3067 3068 3068 3069 3071 3072 3072 3072 3071 3070 3070 3069 3068 3068 3067 3066 3065 3063 3062 3060 3059 3059 3058 3057 3055 3054 3053 3052 3051 3050 3048 3047 3046 3046 3045 3044 3043 3042 3041 3040 3038 3037 3035 3034 3033 3031 3030 3028 3026 3024 3022 3020 3017 3015
3051 3051 3051 3052 3053 3052 3052 3051 3051 3051 3052 3052 3052 3052 3051 3051 3051 3052 3052 3052 3052 3053 3054 3055 3057 3058 3059 3059 3061 3062 3063 3065 3065 3065 3067 3068 3069 3068 3068 3068 3067 3065 3064 3063 3062 3062 3061 3060 3060 3059 3058 3056 3055 3054 3053 3051 3050 3049 3048 3047 3046 3045 3044 3043 3043 3042 3041 3040 3039 3038 3037 3035 3034 3033 3032 3030 3029 3027 3025 3023 3021 3020 3018 3015 3013
3048 3048 3049 3049 3050 3050 3049 3049 3049 3050 3050 3050 3050 3049 3049 3049 3049 3050 3050 3051 3051 3052 3052 3054 3055 3056 3056 3057 3058 3059 3061 3062 3062 3062 3063 3064 3065 3065 3065 3064 3063 3062 3061 3059 3057 3057 3057 3056 3056 3055 3054 3053 3051 3050 3049 3047 3046 3045 3044 3043 3043 3042 3042 3041 3040 3039 3038 3037 3036 3035 3034 3033 3032 3031 3029 3028 3027 3025 3023 3021 3019 3017 3016 3014 3012
3045 3045 3046 3046 3047 3047 3047 3047 3048 3048 3048 3048 3048 3048 3048 3048 3048 3048 3048 3049 3050 3050 3050 3051 3052 3052 3053 3054 3055 3056 3057 3057 3058 3059 3059 3060 3061 3061 3061 3060 3060 3060 3059 3057 3055 3054 3053 3053 3052 3051 3050 3049 3048 3047 3046 3044 3043 3042 3041 3040 3040 3039 3039 3038 3037 3036 3035 3034 3033 3032 3031 3031 3030 3028 3027 3026 3024 3023 3021 3019 3018 3016 3014 3012 3010
3042 3042 3043 3043 3044 3044 3044 3045 3045 3046 3046 3047 3047 3047 3047 3047 3047 3046 3046 3046 3047 3048 3048 3048 3048 3049 3050 3051 3052 3053 3053 3053 3054 3055 3056 3056 3057 3058 3057 3056 3056 3055 3055 3054 3052 3051 3050 3049 3048 3047 3046 3045 3045 3044 3043 3042 3040 3039 3038 3038 3037 3036 3036 3035 3034 3033 3032 3031 3031 3030 3029 3028 3028 3027 3026 3024 3022 3021 3019 3018 3016 3014 3012 3010 3009
3039 3040 3040 3040 3040 3041 3041 3042 3042 3043 3044 3045 3045 3045 3045 3045 3045 3045 3045 3044 3045 3045 3046 3046 3046 3047 3048 3048 3049 3049 3050 3050 3051 3052 3052 3052 3053 3053 3053 3053 3052 3051 3050 3050 3049 3048 3047 3046 3045 3044 3043 3042 3042 3040 3039 3038 3037 3036 3036 3035 3034 3034 3033 3032 3031 3030 3030 3029 3028 3028 3027 3027 3026 3025 3024 3022 3021 3019 3018 3016 3014 3013 3011 3009 3007
3037 3037 3037 3037 3038 3038 3038 3038 3039 3040 3041 3042 3042 3043 3043 3043 3043 3043 3043 3043 3043 3043 3043 3043 3044 3044 3045 3045 3046 3047 3047 3047 3047 3047 3047 3048 3048 3049 3049 3049 3049 3048 3047 3046 3045 3044 3043 3043 3042 3041 3040 3039 3038 3037 3036 3035 3035 3034 3033 3032 3032 3031 3030 3029 3028 3028 3027 3027 3026 3026 3025 3025 3024 3023 3022 3021 3019 3018 3016 3015 3013 3011 3010 3008 3006
3034 3034 3034 3034 3035 3035 3035 3035 3036 3037 3037 3038 3039 3040 3040 3041 3041 3041 3041 3041 3041 3041 3040 3040 3041 3041 3042 3042 3043 3044 3044 3044 3044 3044 3044 3044 3044 3044 3044 3044 3044 3044 3044 3043 3042 3041 3040 3039 3039 3038 3037 3036 3035 3034 3033 3032 3032 3031 3030 3029 3029 3028 3027 3027 3026 3026 3025 3025 3025 3024 3024 3023 3022 3021 3020 3019 3018 3017 3015 3014 3012 3010 3009 3007 3005
3030 3031 3031 3031 3032 3032 3032 3032 3033 3033 3034 3035 3036 3037 3037 3038 3038 3038 3039 3038 3038 3038 3038 3038 3039 3040 3040 3041 3042 3042 3042 3042 3042 3041 3041 3041 3041 3041 3041 3040 3040 3040 3040 3039 3039 3038 3037 3036 3036 3035 3034 3033 3032 3031 3030 3030 3029 3028 3028 3027 3026 3026 3025 3025 3024 3024 3024 3023 3023 3023 3022 3021 3021 3020 3019 3018 3017 3015 3014 3013 3011 3009 3008 3006 3004
3027 3028 3029 3029 3029 3029 3029 3030 3031 3031 3032 3032 3033 3034 3035 3036 3036 3036 3036 3036 3036 3036 3036 3037 3037 3038 3038 3039 3039 3039 3039 3039 3038 3038 3038 3038 3038 3037 3037 3037 3037 3037 3037 3036 3035 3035 3034 3033 3033 3032 3031 3030 3029 3028 3028 3027 3026 3026 3025 3025 3024 3023 3023 3023 3022 3022 3022 3022 3021 3021 3020 3020 3019 3018 3017 3016 3015 3014 3013 3012 3010 3009 3007 3005 3004
3025 3026 3027 3027 3027 3027 3027 3028 3028 3029 3030 3030 3031 3032 3033 3033 3033 3033 3033 3034 3034 3034 3034 3034 3034 3035 3036 3036 3036 3036 3036 3036 3036 3035 3035 3035 3035 3035 3034 3034 3034 3034 3033 3033 3032 3032 3032 3031 3030 3029 3028 3027 3026 3025 3025 3024 3024 3023 3023 3022 3022 3022 3021 3021 3021 3020 3020 3020 3020 3019 3019 3018 3018 3017 3016 3015 3014 3013 3012 3011 3009 3008 3006 3005 3003
3024 3024 3024 3024 3024 3025 3025 3026 3026 3027 3028 3028 3029 3030 3030 3030 3031 3031 3031 3031 3032 3032 3031 3031 3031 3032 3033 3034 3033 3033 3034 3034 3033 3032 3032 3032 3032 3032 3031 3031 3031 3031 3030 3030 3029 3029 3029 3028 3027 3026 3025 3024 3023 3023 3022 3022 3021 3021 3021 3020 3020 3020 3020 3019 3019 3019 3019 3018 3018 3018 3017 3017 3016 3016 3015 3014 3013 3012 3011 3010 3009 3007 3006 3004 3003
3022 3022 3022 3022 3022 3023 3023 3024 3024 3025 3025 3026 3026 3027 3027 3028 3028 3028 3029 3029 3030 3030 3029 3029 3029 3029 3030 3030 3030 3030 3031 3031 3031 3030 3030 3030 3029 3029 3028 3028 3029 3028 3028 3027 3026 3025 3025 3025 3024 3023 3022 3022 3021 3020 3020 3020 3019 3018 3018 3018 3018 3018 3018 3017 3017 3017 3017 3017 3016 3016 3016 3015 3015 3014 3014 3013 3012 3011 3010 3009 3008 3007 3005 3004 3002
3020 3020 3020 3021 3021 3021 3021 3022 3022 3022 3023 3023 3024 3024 3025 3025 3026 3026 3026 3027 3028 3028 3028 3027 3027 3026 3027 3027 3027 3027 3028 3029 3028 3028 3028 3028 3027 3026 3026 3026 3026 3026 3025 3024 3022 3022 3021 3021 3021 3021 3020 3019 3019 3018 3018 3017 3017 3016 3016 3016 3016 3016 3016 3016 3016 3015 3015 3015 3015 3015 3014 3014 3014 3013 3012 3012 3011 3010 3009 3008 3007 3006 3005 3004 3002
3018 3018 3019 3019 3019 3019 3019 3020 3020 3020 3021 3021 3022 3022 3023 3024 3024 3024 3024 3025 3025 3025 3025 3025 3025 3025 3024 3025 3025 3025 3025 3026 3026 3026 3026 3026 3025 3024 3024 3023 3023 3023 3022 3021 3020 3019 3019 3019 3019 3018 3018 3017 3016 3016 3015 3015 3014 3014 3014 3014 3014 3014 3014 3014 3014 3014 3014 3013 3013 3013 3013 3012 3012 3011 3011 3011 3010 3009 3008 3007 3006 3006 3004 3003 3002
3016 3016 3017 3017 3017 3017 3018 3018 3019 3019 3020 3020 3021 3021 3022 3022 3022 3022 3022 3022 3022 3022 3022 3022 3023 3023 3022 3023 3023 3023 3023 3024 3023 3023 3023 3023 3022 3021 3021 3020 3019 3019 3019 3018 3017 3017 3016 3016 3016 3016 3015 3015 3014 3013 3013 3013 3012 3012 3012 3012 3011 3012 3012 3012 3012 3012 3012 3012 3012 3012 3011 3011 3010 3010 3010 3009 3009 3008 3007 3007 3006 3005 3004 3003 3001